This is the latest recevied weather packets stored in our database for station/object SQ7IQO. If no packets are shown the sender has not sent any weather packets the latest 10 day(s).
| Time | Temp. | Humidity | Pressure | Rain* | Wind** | Luminosity | Snow |
|---|---|---|---|---|---|---|---|
| 1788002861 | 22.78° C | 70% | 1015.2 hPa | 0 mm | 1.34 m/s, ° | - | - |
| 1788002801 | 22.78° C | 69% | 1012.1 hPa | 0 mm | 0.45 m/s, ° | - | - |
| 1788002741 | 22.78° C | 68% | 1015.2 hPa | 0 mm | 1.34 m/s, ° | - | - |
| 1788002681 | 22.78° C | 68% | 1015.9 hPa | 0 mm | 0.89 m/s, ° | - | - |
| 1788002621 | 23.33° C | 67% | 1015.2 hPa | 0 mm | 1.79 m/s, ° | - | - |
| 1788002561 | 23.33° C | 68% | 1015.2 hPa | 0 mm | 0.89 m/s, ° | - | - |
| 1788002501 | 22.78° C | 69% | 1015.2 hPa | 0 mm | 0.45 m/s, ° | - | - |
| 1788002441 | 22.22° C | 70% | 1015.1 hPa | 0 mm | 1.34 m/s, ° | - | - |
| 1788002381 | 22.22° C | 69% | 1015.1 hPa | 0 mm | 2.24 m/s, ° | - | - |
| 1788002321 | 22.22° C | 69% | 1014.8 hPa | 0 mm | 2.24 m/s, ° | - | - |
| 1788002261 | 22.78° C | 69% | - | 0 mm | 1.34 m/s, ° | - | - |
| 1788002201 | 22.22° C | 71% | 1015.2 hPa | 0 mm | 0.89 m/s, ° | - | - |
| 1788002141 | 22.22° C | 70% | 1015.2 hPa | 0 mm | 0.89 m/s, ° | - | - |
| 1788002081 | 22.22° C | 70% | 1015.2 hPa | 0 mm | 1.34 m/s, ° | - | - |
| 1788002021 | 22.22° C | 70% | 1015.3 hPa | 0 mm | 1.79 m/s, ° | - | - |
| 1788001961 | 21.67° C | 71% | 1015.2 hPa | 0 mm | 1.34 m/s, ° | - | - |
| 1788001901 | 21.67° C | 72% | 1015.2 hPa | 0 mm | 1.79 m/s, ° | - | - |
| 1788001841 | 21.67° C | 70% | 1015.2 hPa | 0 mm | 1.79 m/s, ° | - | - |
| 1788001781 | 21.67° C | 73% | 1015.2 hPa | 0 mm | 0.89 m/s, ° | - | - |
| 1788001721 | 21.67° C | 72% | 1015.2 hPa | 0 mm | 1.34 m/s, ° | - | - |
| 1788001661 | 21.67° C | 74% | 1035 hPa | 0 mm | 0.89 m/s, ° | - | - |
| 1788001601 | 21.67° C | 75% | 1015.2 hPa | 0 mm | 0.89 m/s, ° | - | - |
| 1788001541 | 21.67° C | 74% | 1015.2 hPa | 0 mm | 0.45 m/s, ° | - | - |
| 1788001482 | 21.67° C | 72% | 1015.2 hPa | 0 mm | 0.89 m/s, ° | - | - |
| 1788001421 | 22.22° C | 71% | 1015.2 hPa | 0 mm | 0.89 m/s, ° | - | - |
* Rain latest hour (hover to see other rain measurements)
** Current wind speed in m/s (hover to see current wind gust speed)